Doylestown, PA

1:32 PM EDT on October 21, 2017 (GMT -0400)
Doylestown

Weather History for KDYL - April, 2013

Change the Weather History Date:

Friday, April 19, 2013

  Actual Average (KTTN) Record (KTTN)
Temperature  
Mean Temperature 64 °F -  
Max Temperature 75 °F 61 °F 90 °F (1976)
Min Temperature 52 °F 40 °F 25 °F (1875)
Degree Days  
Heating Degree Days 1    
Growing Degree Days 14 (Base 50)    
Moisture  
Dew Point 59 °F    
Average Humidity 89    
Maximum Humidity 100    
Minimum Humidity 64    
Precipitation  
Precipitation 0.66 in - - ()
Sea Level Pressure  
Sea Level Pressure 29.82 in    
Wind  
Wind Speed 8 mph (SSW)    
Max Wind Speed 17 mph    
Max Gust Speed 30 mph    
Visibility 9 miles    
Events Rain    
Averages and records for this station are not official NWS values.
T = Trace of Precipitation, MM = Missing Value Source: NWS Daily Summary

Daily Weather History Graph

Daily Weather History Graph

Search for Another Location

Airport or City:

Trip Planner

Search our weather history database for the weather conditions in past years. The results will help you decide how hot, cold, wet, or windy it might be!

Date:

Astronomy

Apr. 19, 2013 Rise Set
Actual Time 6:15 AM EDT 7:43 PM EDT
Civil Twilight 5:47 AM EDT 8:12 PM EDT
Nautical Twilight 5:13 AM EDT 8:46 PM EDT
Astronomical Twilight 4:37 AM EDT 9:23 PM EDT
Moon 1:25 PM EDT (4/19) 2:30 AM EDT (4/19)
Length of Visible Light 14h 24m
Length of Day
13h 27m
First Quarter, 61% of the Moon is Illuminated
Apr 19
First Quarter
Apr 25
Full
May 2
Last Quarter
May 9
New
May 18
First Quarter

Hourly Weather History & Observations

Time (EDT) Temp. Dew Point Humidity Pressure Visibility Wind Dir Wind Speed Gust Speed Precip Events Conditions
12:33 AM 55.4 °F 55.4 °F 100% 30.05 in 8.0 mi SSE 6.9 mph - N/A   Mostly Cloudy
12:54 AM 55.9 °F 55.9 °F 100% 30.05 in 9.0 mi SSE 8.1 mph - N/A   Overcast
1:05 AM 55.4 °F 55.4 °F 100% 30.05 in 10.0 mi SSE 6.9 mph - N/A   Overcast
1:54 AM 57.0 °F 55.9 °F 96% 30.03 in 10.0 mi Variable 6.9 mph - N/A   Overcast
2:24 AM 57.2 °F 57.2 °F 100% 30.01 in 10.0 mi SSE 5.8 mph - N/A   Overcast
2:54 AM 57.9 °F 57.0 °F 97% 29.99 in 10.0 mi SSE 5.8 mph - N/A   Overcast
3:54 AM 57.9 °F 57.0 °F 97% 29.99 in 10.0 mi South 4.6 mph - N/A   Overcast
4:54 AM 59.0 °F 57.0 °F 93% 29.96 in 10.0 mi SSE 6.9 mph - N/A   Overcast
5:54 AM 60.1 °F 57.9 °F 93% 29.93 in 10.0 mi South 5.8 mph - N/A   Overcast
6:54 AM 61.0 °F 57.9 °F 90% 29.95 in 10.0 mi SSW 6.9 mph - N/A   Overcast
7:54 AM 61.0 °F 57.9 °F 90% 29.94 in 10.0 mi South 6.9 mph - N/A   Overcast
8:54 AM 62.1 °F 59.0 °F 90% 29.92 in 10.0 mi South 5.8 mph - 0.00 in   Overcast
9:14 AM 62.6 °F 60.8 °F 94% 29.92 in - Variable 5.8 mph - 0.00 in   Unknown
9:45 AM 62.6 °F 60.8 °F 94% 29.90 in 10.0 mi South 10.4 mph - 0.01 in   Overcast
9:54 AM 63.0 °F 60.1 °F 90% 29.90 in 10.0 mi South 8.1 mph - 0.01 in   Overcast
10:54 AM 66.0 °F 61.0 °F 84% 29.87 in 10.0 mi SSW 9.2 mph 16.1 mph N/A   Overcast
11:54 AM 64.9 °F 63.0 °F 93% 29.84 in 10.0 mi South 8.1 mph - 0.00 in Rain Light Rain
12:09 PM 68.0 °F 64.4 °F 88% 29.84 in 10.0 mi South 10.4 mph 20.7 mph 0.00 in   Mostly Cloudy
12:54 PM 69.1 °F 63.0 °F 81% 29.82 in 10.0 mi South 9.2 mph 18.4 mph 0.00 in   Overcast
1:23 PM 71.6 °F 62.6 °F 73% 29.80 in 10.0 mi South 11.5 mph 18.4 mph N/A   Overcast
1:54 PM 71.1 °F 62.1 °F 73% 29.79 in 10.0 mi South 10.4 mph 20.7 mph N/A   Overcast
2:54 PM 73.9 °F 62.1 °F 66% 29.72 in 10.0 mi South 13.8 mph 27.6 mph N/A   Mostly Cloudy
3:54 PM 73.9 °F 62.1 °F 66% 29.68 in 10.0 mi South 12.7 mph 26.5 mph N/A   Mostly Cloudy
5:54 PM 73.9 °F 61.0 °F 64% 29.65 in 10.0 mi South 9.2 mph 24.2 mph N/A   Mostly Cloudy
6:54 PM 72.0 °F 62.1 °F 71% 29.63 in 10.0 mi SSE 13.8 mph 21.9 mph N/A   Overcast
7:54 PM 71.1 °F 62.1 °F 73% 29.60 in 10.0 mi SSE 11.5 mph 23.0 mph N/A   Mostly Cloudy
8:54 PM 70.0 °F 63.0 °F 78% 29.63 in 10.0 mi South 13.8 mph 20.7 mph 0.00 in Rain Light Rain
9:14 PM 66.2 °F 62.6 °F 88% 29.66 in 10.0 mi West 13.8 mph 19.6 mph 0.03 in Rain Light Rain
9:38 PM 62.6 °F 60.8 °F 94% 29.71 in 2.5 mi West 11.5 mph 21.9 mph 0.21 in Rain Heavy Rain
9:46 PM 60.8 °F 60.8 °F 100% 29.69 in 1.5 mi WNW 9.2 mph - 0.35 in Rain Heavy Rain
9:54 PM 61.0 °F 60.1 °F 97% 29.71 in 2.5 mi SW 3.5 mph - 0.41 in Rain Heavy Rain
10:01 PM 60.8 °F 60.8 °F 100% 29.70 in 5.0 mi West 8.1 mph - 0.02 in Rain Rain
10:10 PM 60.8 °F 60.8 °F 100% 29.70 in 5.0 mi West 6.9 mph - 0.06 in Rain Rain
10:48 PM 60.8 °F 60.8 °F 100% 29.69 in 8.0 mi Variable 5.8 mph - 0.13 in Rain Rain
10:54 PM 57.9 °F 55.9 °F 93% 29.68 in 8.0 mi NW 17.3 mph 29.9 mph 0.14 in Rain Light Rain
11:02 PM 55.4 °F 53.6 °F 94% 29.70 in 10.0 mi NW 10.4 mph 24.2 mph 0.01 in Rain Light Rain
11:21 PM 55.4 °F 53.6 °F 94% 29.74 in 10.0 mi West 10.4 mph 18.4 mph 0.03 in Rain Light Rain
11:54 PM 52.0 °F 48.9 °F 89% 29.72 in 9.0 mi NW 11.5 mph 21.9 mph 0.10 in Rain Rain